Date,TemperatureHighF,TemperatureAvgF,TemperatureLowF,DewpointHighF,DewpointAvgF,DewpointLowF,HumidityHigh,HumidityAvg,HumidityLow,PressureMaxIn,PressureMinIn,WindSpeedMaxMPH,WindSpeedAvgMPH,GustSpeedMaxMPH,PrecipitationSumIn
2014-1-1,13.1,6.6,1.2,0.6,-2.0,-6.7,78,67,54,30.17,30.09,2,1,8,0.00
2014-1-2,19.8,9.5,5.2,2.3,-0.3,-2.5,75,64,45,30.22,30.09,2,1,9,0.00
2014-1-3,21.6,4.8,-15.0,14.6,-0.9,-18.6,86,77,61,30.22,29.48,4,2,15,0.00
2014-1-4,34.2,31.5,21.4,28.7,25.6,14.6,80,79,73,29.56,29.42,3,2,13,0.00
2014-1-5,34.0,34.0,34.0,28.5,28.5,28.5,80,80,80,29.56,29.56,2,2,10,0.00
2014-1-6,34.0,6.6,-16.4,28.5,-1.4,-27.1,80,69,46,30.10,29.56,4,2,14,0.00
2014-1-7,14.2,-4.4,-15.3,-4.3,-13.1,-20.5,84,67,38,30.08,29.95,2,0,7,0.00
2014-1-8,20.7,-2.6,-12.1,-0.8,-9.9,-15.6,85,72,37,30.17,29.80,2,0,5,0.00
2014-1-9,23.7,3.3,-15.2,18.4,-2.2,-19.1,92,78,49,30.00,29.55,2,0,5,0.00
2014-1-10,33.1,28.9,20.3,32.8,28.5,18.4,100,98,92,29.55,28.98,2,0,8,0.00
2014-1-11,33.3,30.8,27.3,32.2,28.6,25.1,100,92,82,29.29,28.96,2,0,9,0.00
2014-1-12,45.5,34.9,26.2,32.8,29.8,25.3,100,83,59,29.29,28.98,4,0,11,0.00
2014-1-13,44.2,33.6,24.8,33.5,28.5,21.2,97,83,49,29.24,29.03,4,1,11,0.00
2014-1-14,35.2,26.5,14.2,34.7,21.7,7.5,100,82,72,29.52,28.99,5,0,17,0.00
2014-1-15,22.1,12.9,4.3,16.4,5.9,0.9,87,74,49,29.64,29.13,3,1,10,0.00
2014-1-16,36.7,22.7,8.8,34.3,16.4,2.2,97,77,49,29.31,28.95,6,2,21,0.00
2014-1-17,24.4,10.8,1.2,8.9,3.9,-1.9,89,74,51,29.52,29.31,3,1,13,0.00
2014-1-18,26.2,12.1,1.8,20.3,8.9,-0.9,95,87,63,29.44,29.14,3,1,10,0.00
2014-1-19,46.6,28.7,7.9,31.5,22.0,5.9,94,77,49,29.37,29.00,3,1,9,0.00
2014-1-20,36.5,25.2,6.4,29.3,20.1,-3.4,94,81,61,29.78,29.17,4,2,13,0.00
2014-1-21,12.6,1.6,-8.5,-3.5,-8.7,-15.1,73,62,41,29.91,29.59,4,1,10,0.00
2014-1-22,18.5,6.9,-3.1,6.2,-1.0,-12.4,86,70,50,29.81,29.45,5,2,15,0.00
2014-1-23,9.3,-4.4,-13.2,-8.3,-13.5,-17.3,84,65,41,30.16,29.88,4,1,9,0.00
2014-1-24,35.2,16.8,-11.0,33.2,9.7,-14.6,100,74,58,29.95,28.94,4,2,15,0.00
2014-1-25,35.1,15.5,4.1,31.7,2.3,-5.3,88,56,39,29.39,28.96,5,2,21,0.00
2014-1-26,1.4,0.2,-1.1,-4.8,-6.4,-8.1,75,73,71,29.50,29.37,5,4,16,0.00
2014-1-27,3.2,-4.8,-10.8,-8.3,-15.1,-19.5,78,61,41,29.93,29.50,5,2,14,0.00
2014-1-28,11.3,-7.0,-20.2,-6.9,-15.3,-24.7,84,68,42,29.94,29.69,3,1,11,0.00
2014-1-29,30.6,9.0,-15.7,13.8,-1.7,-19.8,85,64,34,29.69,29.24,4,1,9,0.00
2014-1-30,34.0,24.8,6.3,30.0,17.0,0.6,97,73,58,29.52,29.02,4,2,11,0.00
2014-1-31,22.5,4.8,-1.8,3.6,-4.7,-8.3,81,66,36,29.70,29.51,2,0,7,0.00
2014-2-1,35.6,13.3,2.3,20.1,7.6,-3.3,91,79,51,29.67,29.45,2,0,4,0.00
2014-2-2,23.2,4.7,-9.4,4.7,-3.8,-12.6,87,71,36,29.84,29.66,2,0,8,0.00
2014-2-3,27.5,4.9,-15.3,11.4,-2.7,-19.0,85,72,47,29.85,29.47,4,1,11,0.00
2014-2-4,23.4,14.9,6.6,12.0,7.6,3.6,89,73,56,29.92,29.77,2,1,7,0.00
2014-2-5,17.1,17.1,17.1,7.7,7.7,7.7,66,66,66,29.80,29.80,1,1,4,0.00
2014-2-6,17.1,17.1,17.1,7.7,7.7,7.7,66,66,66,29.80,29.80,1,1,4,0.00
2014-2-7,17.1,17.1,17.1,7.7,7.7,7.7,66,66,66,29.80,29.80,1,1,4,0.00
2014-2-8,17.1,17.1,17.1,7.7,7.7,7.7,66,66,66,29.80,29.80,1,1,4,0.00
2014-2-9,17.1,17.1,17.1,7.7,7.7,7.7,66,66,66,29.80,29.80,1,1,4,0.00
2014-2-10,17.1,17.1,17.1,7.7,7.7,7.7,66,66,66,29.80,29.80,1,1,4,0.00
2014-2-11,17.1,17.1,17.1,7.7,7.7,7.7,66,66,66,29.80,29.80,1,1,4,0.00
2014-2-12,17.1,17.1,17.1,7.7,7.7,7.7,66,66,66,29.80,29.80,1,1,4,0.00
2014-2-13,17.1,17.1,17.1,7.7,7.7,7.7,66,66,66,29.80,29.80,1,1,4,0.00
2014-2-14,17.1,17.1,17.1,7.7,7.7,7.7,66,66,66,29.80,29.80,1,1,4,0.00
2014-2-15,17.1,17.1,17.1,7.7,7.7,7.7,66,66,66,29.80,29.80,1,1,4,0.00
2014-2-16,23.2,17.8,17.1,14.0,8.5,7.7,72,66,66,29.80,29.68,2,1,5,0.00
2014-2-17,28.6,22.2,19.2,25.5,19.2,14.5,100,88,81,29.67,29.24,5,2,13,0.00
2014-2-22,30.9,17.5,8.4,12.8,8.5,4.1,86,69,44,29.64,29.32,4,1,8,0.00
2014-2-23,9.1,8.9,8.4,5.3,4.7,4.1,84,83,82,29.65,29.63,1,1,4,0.00
2014-2-28,-3.3,-3.3,-3.3,-11.1,-11.1,-11.1,68,68,68,29.68,29.68,1,1,7,0.00
2014-3-1,-3.3,-3.3,-3.3,-11.1,-11.1,-11.1,68,68,68,29.68,29.68,1,1,7,0.00
2014-3-2,14.0,-2.5,-8.7,-11.1,-12.6,-16.8,68,62,27,30.04,29.68,3,1,9,0.00
2014-3-3,20.5,3.3,-16.4,6.4,-8.6,-20.8,88,59,33,30.04,29.79,2,1,7,0.00
2014-3-4,33.3,19.4,9.0,17.0,9.5,6.1,92,67,37,29.79,29.64,3,1,7,0.00
2014-3-5,18.3,18.0,17.6,16.5,16.1,15.5,93,92,91,29.79,29.77,4,1,9,0.00
2014-3-6,39.4,20.0,2.3,22.1,12.4,-0.5,90,74,48,29.93,29.47,3,1,7,0.00
2014-3-7,44.6,33.6,19.2,33.8,27.1,15.4,88,78,60,29.55,29.34,3,1,9,0.00
2014-3-8,45.5,31.7,17.4,30.3,21.9,14.4,90,69,37,29.77,29.55,3,1,9,0.00
2014-3-9,52.5,31.8,12.9,34.7,24.4,11.3,95,76,50,29.76,29.23,5,1,15,0.00
2014-3-10,64.9,44.4,30.6,40.9,35.1,29.7,100,74,38,29.23,29.15,2,0,9,0.00
2014-3-11,45.0,37.5,34.3,38.8,35.1,32.3,100,91,71,29.35,29.16,3,1,13,0.00
2014-3-12,38.7,31.1,18.9,35.4,19.8,12.7,99,63,44,29.62,29.33,4,2,11,0.00
2014-3-13,56.1,34.5,14.4,38.6,26.6,12.2,93,75,51,29.60,29.17,4,1,11,0.00
2014-3-14,51.6,42.7,35.1,36.3,33.6,26.3,86,71,52,29.40,29.03,5,2,15,0.00
2014-3-15,40.5,32.6,23.9,26.3,22.9,17.0,87,68,51,29.79,29.41,3,1,8,0.00
2014-3-16,35.4,25.1,16.2,17.5,10.3,2.4,75,54,35,29.92,29.64,5,2,11,0.00
2014-3-17,45.5,29.1,18.3,24.1,17.6,11.7,77,63,40,29.64,29.15,6,2,14,0.00
2014-3-18,51.3,38.7,30.6,38.0,31.2,23.9,97,75,59,29.25,29.10,5,2,12,0.00
2014-3-19,38.1,35.1,30.9,37.2,31.4,25.8,100,87,69,29.51,29.11,4,2,14,0.00
2014-3-20,55.4,36.5,23.0,33.9,27.9,22.8,100,75,33,29.57,29.46,3,0,8,0.00
2014-3-21,59.2,38.6,23.0,41.4,30.9,22.3,100,76,50,29.49,29.23,5,2,17,0.00
2014-3-22,36.9,31.2,23.0,30.0,19.0,10.0,80,62,36,29.88,29.49,4,3,14,0.00
2014-3-23,35.6,22.2,14.0,11.2,8.0,5.8,74,55,33,30.00,29.88,4,2,11,0.00
2014-3-24,39.0,28.0,18.3,28.7,19.2,11.2,95,70,48,29.89,29.59,3,1,11,0.00
2014-3-25,30.6,22.5,17.2,17.2,9.1,3.4,86,57,36,29.75,29.57,5,2,15,0.00
2014-3-26,46.0,30.1,12.6,24.0,15.8,8.1,86,58,33,29.74,29.28,5,2,15,0.00
2014-3-27,47.8,39.3,37.4,38.8,36.4,24.0,100,91,46,29.27,29.01,5,2,19,0.01
2014-3-28,39.0,39.0,39.0,38.8,38.8,38.8,99,99,99,29.01,29.01,2,2,4,0.00
2014-3-29,39.0,39.0,39.0,38.8,38.8,38.8,99,99,99,29.01,29.01,2,2,4,0.00
2014-3-30,39.0,39.0,39.0,38.8,38.8,38.8,99,99,99,29.01,29.01,2,2,4,0.00
2014-3-31,39.0,39.0,39.0,38.8,38.8,38.8,99,99,99,29.01,29.01,2,2,4,0.00
2014-4-1,39.0,39.0,39.0,38.8,38.8,38.8,99,99,99,29.01,29.01,2,2,4,0.00
2014-4-2,39.0,39.0,39.0,38.8,38.8,38.8,99,99,99,29.01,29.01,2,2,4,0.00
2014-4-3,39.0,39.0,39.0,38.8,38.8,38.8,99,99,99,29.01,29.01,2,2,4,0.00
2014-4-4,39.0,39.0,39.0,38.8,38.8,38.8,99,99,99,29.01,29.01,2,2,4,0.00
2014-4-5,39.0,39.0,39.0,38.8,38.8,38.8,99,99,99,29.01,29.01,2,2,4,0.00
2014-4-6,39.0,39.0,39.0,38.8,38.8,38.8,99,99,99,29.01,29.01,2,2,4,0.00
2014-4-7,64.6,51.1,43.2,45.7,41.3,37.9,87,71,45,29.39,29.18,3,1,8,0.00
2014-4-8,64.6,48.1,33.8,39.4,34.2,30.8,97,63,35,29.48,29.24,4,1,11,0.00
2014-4-9,72.0,51.4,28.4,38.0,32.8,27.1,96,56,24,29.51,29.16,6,2,21,0.00
2014-4-10,70.9,58.3,45.9,42.6,31.7,14.9,72,41,15,29.47,29.09,4,2,14,0.00
2014-4-11,77.4,55.1,35.2,41.6,34.5,30.9,86,51,20,29.52,29.40,4,1,16,0.00
2014-4-12,72.9,58.6,50.4,52.2,50.0,48.0,100,76,45,29.20,29.09,4,2,12,0.01
2014-4-13,53.1,47.6,40.6,52.8,47.2,39.4,100,99,96,29.27,29.07,6,2,19,0.00
2014-4-14,40.5,34.5,28.8,39.4,27.8,19.0,100,78,51,29.57,29.08,6,2,15,0.00
2014-4-15,46.8,33.4,23.9,22.2,18.4,14.0,83,56,28,29.66,29.56,3,1,12,0.00
2014-4-16,59.4,45.6,28.6,34.4,28.1,20.4,77,52,36,29.64,29.38,6,3,18,0.00
2014-4-17,56.5,44.6,33.4,40.9,35.1,30.4,91,71,49,29.81,29.40,6,2,15,0.00
2014-4-18,67.3,47.2,28.0,35.9,30.4,23.7,100,59,24,29.88,29.75,3,1,7,0.00
2014-4-19,58.1,58.1,58.1,29.9,29.9,29.9,34,34,34,29.75,29.75,1,1,5,0.00
2014-4-20,58.1,58.1,58.1,29.9,29.9,29.9,34,34,34,29.75,29.75,1,1,5,0.00
2014-4-21,58.1,58.1,58.1,29.9,29.9,29.9,34,34,34,29.75,29.75,1,1,5,0.00
2014-4-22,58.1,58.1,58.1,29.9,29.9,29.9,34,34,34,29.75,29.75,1,1,5,0.00
2014-4-23,58.1,58.1,58.1,29.9,29.9,29.9,34,34,34,29.75,29.75,1,1,5,0.00
2014-4-24,54.3,47.3,41.4,51.7,44.1,37.4,100,89,71,29.50,29.15,4,1,11,0.00
2014-4-25,74.3,55.4,35.8,50.1,41.4,33.5,100,67,24,29.34,29.22,4,1,15,0.00
2014-4-26,66.7,53.1,41.7,43.4,36.8,31.7,85,56,32,29.49,29.34,6,2,14,0.00
2014-4-27,57.2,48.1,43.2,45.5,40.7,30.1,93,76,57,29.50,29.06,15,4,33,0.00
2014-4-28,49.3,46.8,44.6,45.2,43.8,42.1,97,89,81,29.22,29.01,9,4,24,0.00
2014-4-29,46.8,44.2,42.8,45.0,43.1,41.5,100,96,90,29.12,28.99,7,2,16,0.00
2014-4-30,46.0,42.9,41.0,44.1,41.7,40.4,100,96,84,29.22,29.12,2,0,6,0.00
2014-5-1,49.8,44.8,40.6,44.2,42.2,39.8,100,91,81,29.34,29.14,3,1,9,0.00
2014-5-2,61.9,51.7,39.0,48.8,44.0,32.8,93,77,49,29.33,29.11,4,1,13,0.00
2014-5-3,70.7,56.3,38.5,45.3,40.0,36.8,100,59,30,29.42,29.17,7,2,14,0.00
2014-5-4,66.6,54.5,47.5,38.4,34.5,27.6,69,48,30,29.58,29.42,4,1,9,0.00
2014-5-5,69.8,56.3,47.5,42.3,35.6,31.7,58,46,29,29.50,29.38,6,2,16,0.00
2014-5-6,72.7,58.9,45.3,44.9,39.0,32.9,65,49,35,29.50,29.28,7,3,15,0.00
2014-5-7,77.7,64.4,53.6,58.0,48.7,40.0,77,57,47,29.31,29.17,6,2,14,0.00
2014-5-8,81.3,70.0,58.8,67.8,62.7,52.9,92,78,58,29.24,29.12,4,1,14,0.00
2014-5-9,71.6,65.9,57.7,62.1,58.3,52.3,82,77,69,29.15,29.09,3,2,12,0.00
2014-5-10,74.8,58.9,39.4,56.6,48.1,39.1,100,71,36,29.43,29.33,3,0,8,0.00
2014-5-11,80.1,65.4,50.0,69.4,59.9,49.6,100,83,64,29.41,29.27,3,0,12,0.01
2014-5-12,81.3,67.8,58.8,71.7,64.9,56.3,100,91,64,29.33,29.12,4,1,17,0.00
2014-5-13,58.6,52.4,43.3,56.6,46.1,34.2,100,80,63,29.69,29.31,3,1,11,0.00
2014-5-14,59.7,54.8,44.4,42.5,39.8,31.5,84,59,36,29.73,29.69,3,1,11,0.00
2014-5-15,59.4,50.5,45.9,45.5,40.4,33.1,86,69,51,29.57,29.49,2,0,7,0.00
2014-5-16,60.3,49.9,41.0,36.4,31.6,26.6,75,51,31,29.59,29.52,3,1,8,0.00
2014-5-17,70.2,54.1,35.1,39.0,34.1,28.8,93,52,24,29.61,29.54,3,1,12,0.00
2014-5-18,77.7,62.1,45.7,42.3,38.6,33.5,72,45,21,29.67,29.56,3,1,12,0.00
2014-5-19,66.6,59.4,51.8,57.0,50.9,41.4,96,74,60,29.62,29.31,4,1,13,0.00
2014-5-20,94.5,74.5,59.5,66.8,61.9,56.2,97,68,33,29.33,29.26,2,0,6,0.00
2014-5-21,86.4,70.8,57.2,61.9,56.1,48.4,100,65,28,29.56,29.31,3,1,10,0.00
2014-5-22,84.0,65.1,50.0,54.6,49.0,43.4,100,62,26,29.67,29.56,2,1,8,0.00
2014-5-23,87.1,65.6,49.3,54.8,50.5,44.6,100,64,24,29.73,29.62,2,0,7,0.00
2014-5-24,87.6,66.9,50.5,54.9,49.8,39.6,96,61,22,29.72,29.57,3,0,10,0.00
2014-5-25,87.8,69.9,49.1,65.3,55.8,47.1,95,65,37,29.61,29.45,3,1,11,0.00
2014-5-26,93.0,77.1,68.0,73.2,68.7,63.9,100,77,47,29.49,29.36,2,0,8,0.01
2014-5-27,92.5,75.5,65.8,69.6,67.4,62.2,100,79,38,29.40,29.31,2,0,13,0.00
2014-5-28,83.8,70.3,62.1,67.2,57.8,46.7,100,68,32,29.56,29.39,3,1,8,0.00
2014-5-29,94.3,73.9,55.9,65.3,58.8,52.4,90,62,36,29.62,29.51,3,1,8,0.00
2014-5-30,97.7,77.5,60.4,65.0,59.8,54.0,89,58,28,29.66,29.54,2,0,8,0.00
2014-5-31,95.4,78.1,60.8,70.9,62.6,54.5,100,62,37,29.64,29.44,4,1,16,0.01
2014-6-1,88.9,75.0,68.7,80.5,71.7,68.5,100,90,69,29.49,29.24,3,0,14,0.00
2014-6-2,87.3,75.6,67.1,71.3,66.4,59.0,100,76,43,29.34,29.20,3,1,13,0.00
2014-6-3,83.7,71.5,61.3,61.7,57.2,53.3,83,62,40,29.49,29.33,2,1,9,0.00
2014-6-4,83.5,70.4,61.7,64.8,61.8,58.7,96,75,51,29.43,29.25,2,0,8,0.00
2014-6-5,89.1,70.3,56.7,63.4,55.4,48.1,100,65,26,29.48,29.37,3,0,13,0.00
2014-6-6,93.0,73.1,56.7,66.6,61.0,52.4,94,68,40,29.47,29.39,2,0,8,0.00
2014-6-7,82.0,67.6,61.2,69.8,63.8,60.6,100,88,63,29.47,29.37,2,0,8,0.01
2014-6-8,79.9,67.1,59.0,61.3,57.3,54.0,95,73,46,29.58,29.46,1,0,7,0.00
2014-6-9,82.0,69.2,57.9,59.2,52.1,43.5,94,58,31,29.53,29.40,2,0,6,0.00
2014-6-10,78.3,69.3,62.1,62.3,58.0,53.6,84,68,55,29.43,29.32,2,0,7,0.00
2014-6-11,90.9,74.0,64.4,63.4,60.2,57.9,84,64,36,29.33,29.22,2,0,8,0.00
2014-6-12,79.0,69.0,59.4,62.2,55.0,48.1,89,64,37,29.45,29.20,3,1,13,0.00
2014-6-13,88.2,66.9,50.9,53.7,48.5,43.0,87,56,24,29.55,29.45,2,0,8,0.00
2014-6-14,82.6,69.5,56.8,55.7,51.5,48.6,80,55,32,29.52,29.31,2,1,12,0.00
2014-6-15,91.6,76.4,66.4,67.7,59.4,52.0,80,57,32,29.40,29.08,4,2,19,0.00
2014-6-16,90.5,75.5,59.4,73.4,64.8,57.0,100,72,45,29.49,29.20,3,1,12,0.01
2014-6-17,90.5,75.7,63.3,74.5,68.9,63.0,100,81,54,29.36,29.16,2,0,8,0.00
2014-6-18,85.5,75.8,67.8,76.2,71.0,67.6,100,86,66,29.47,29.22,3,1,17,0.00
2014-6-19,79.0,70.7,65.8,72.0,69.0,65.6,100,95,77,29.55,29.41,4,1,12,0.00
2014-6-20,93.9,77.0,67.8,73.6,69.4,64.3,99,81,42,29.48,29.38,1,0,6,0.00
2014-6-21,95.7,77.5,68.9,73.6,69.8,66.3,100,79,43,29.42,29.33,1,0,7,0.00
2014-6-22,87.8,71.0,65.7,74.5,68.3,65.4,100,93,56,29.43,29.31,3,0,12,0.00
2014-6-23,87.6,74.3,64.4,72.2,68.4,64.1,99,84,56,29.36,29.29,2,0,5,0.00
2014-6-24,92.8,77.6,66.2,69.8,67.0,63.5,100,73,43,29.42,29.35,2,0,7,0.00
2014-6-25,90.0,77.0,67.1,70.1,66.5,63.7,100,73,45,29.51,29.41,2,0,7,0.00
2014-6-26,89.4,74.6,65.7,74.1,68.6,64.2,100,83,59,29.53,29.40,2,0,8,0.00
2014-6-27,87.3,77.9,70.2,75.5,71.2,65.6,95,81,63,29.44,29.30,4,1,16,0.00
2014-6-28,88.5,78.0,68.9,77.4,73.2,68.6,100,86,67,29.41,29.26,3,1,16,0.01
2014-6-29,88.2,75.1,67.1,76.4,70.0,65.5,100,85,65,29.41,29.22,3,1,10,0.00
2014-6-30,86.7,71.9,64.8,77.5,70.1,64.5,100,94,72,29.30,29.09,3,0,13,0.00
2014-7-1,81.0,68.6,61.3,70.8,63.3,56.5,100,84,58,29.31,29.13,3,1,13,0.00
2014-7-2,72.1,63.0,56.7,59.9,56.9,54.4,100,81,63,29.55,29.31,2,1,8,0.00
2014-7-3,87.8,67.5,51.6,61.6,54.5,48.4,100,69,31,29.71,29.55,2,0,5,0.00
2014-7-4,88.0,69.9,54.1,63.3,57.4,52.0,100,69,35,29.80,29.69,2,0,8,0.00
2014-7-5,76.3,69.1,63.0,67.1,62.2,56.5,94,79,68,29.71,29.48,2,0,8,0.00
2014-7-6,91.8,75.2,68.2,80.2,71.7,65.8,100,89,68,29.49,29.16,2,0,10,0.01
2014-7-7,92.1,77.0,64.8,74.6,68.7,63.8,100,78,49,29.28,29.12,3,0,11,0.00
2014-7-8,86.5,73.2,63.3,66.7,62.4,56.8,100,72,42,29.36,29.10,3,1,11,0.00
2014-7-9,87.3,71.4,59.7,62.9,58.9,56.2,89,67,38,29.54,29.35,1,0,8,0.00
2014-7-10,91.4,74.1,59.5,69.1,63.8,58.7,100,73,46,29.62,29.53,1,0,7,0.00
2014-7-11,85.8,73.2,67.5,70.6,65.2,60.6,88,76,58,29.63,29.52,2,0,6,0.00
2014-7-12,85.5,73.9,65.7,77.2,70.9,65.4,100,91,70,29.53,29.38,1,0,5,0.01
2014-7-13,88.3,74.9,64.8,71.5,65.1,57.0,99,75,39,29.45,29.38,3,0,10,0.00
2014-7-14,78.3,67.8,57.2,62.9,56.1,50.1,100,69,39,29.44,29.36,4,1,12,0.00
2014-7-15,79.2,64.2,55.8,59.3,55.2,52.6,92,74,49,29.51,29.44,2,1,10,0.00
2014-7-16,85.5,68.0,52.5,61.1,54.8,49.6,100,68,30,29.54,29.48,1,0,7,0.00
2014-7-17,86.9,68.3,52.0,63.3,58.2,51.3,100,73,42,29.59,29.53,1,0,5,0.00
2014-7-18,88.0,72.5,60.1,65.7,61.6,58.9,97,71,45,29.62,29.52,2,0,8,0.00
2014-7-19,87.6,73.8,64.0,65.6,62.9,59.8,88,70,47,29.55,29.45,2,0,8,0.00
2014-7-20,89.6,77.0,67.3,70.4,66.4,62.8,87,71,49,29.50,29.41,2,0,9,0.00
2014-7-21,96.3,81.0,69.8,76.8,71.0,66.3,90,73,50,29.50,29.42,2,0,9,0.00
2014-7-22,100.2,84.7,73.9,80.0,73.9,68.3,83,71,46,29.55,29.38,2,0,8,0.00
2014-7-23,91.4,76.2,63.9,68.3,61.9,57.5,90,64,33,29.70,29.55,2,0,6,0.00
2014-7-24,90.9,72.9,60.8,65.0,61.2,56.8,91,69,37,29.67,29.43,2,0,6,0.00
2014-7-25,82.0,70.1,63.5,70.3,64.8,60.7,97,84,65,29.51,29.25,3,0,13,0.00
2014-7-26,92.1,76.2,68.0,78.8,71.1,65.9,100,85,63,29.37,29.27,1,0,4,0.00
2014-7-27,84.4,73.5,66.7,72.5,65.0,60.1,100,77,47,29.51,29.28,3,1,11,0.00
2014-7-28,85.1,69.4,57.9,61.3,56.2,51.1,93,66,33,29.66,29.51,2,0,7,0.00
2014-7-29,91.0,71.1,56.3,63.8,59.2,55.2,100,70,34,29.60,29.50,2,0,8,0.00
2014-7-30,90.1,71.9,59.2,71.5,62.1,58.3,100,75,38,29.57,29.50,2,0,6,0.00
2014-7-31,92.5,74.8,60.4,66.0,62.0,58.5,100,69,36,29.54,29.48,2,0,6,0.00
2014-8-1,91.8,69.6,59.2,67.4,62.9,58.9,100,82,36,29.57,29.51,1,0,2,0.00
2014-8-14,90.1,73.5,59.4,60.1,56.3,49.4,86,58,26,29.64,29.51,2,1,6,0.00
2014-8-15,85.3,70.0,55.8,70.0,62.3,54.6,96,78,57,29.54,29.41,2,0,6,0.00
2014-8-16,93.6,75.6,64.8,73.3,69.2,64.2,100,82,48,29.41,29.33,2,0,5,0.00
2014-8-17,77.9,71.9,68.0,71.0,68.9,66.7,100,91,77,29.50,29.40,1,0,4,0.00
2014-8-18,94.3,77.8,67.1,75.1,71.0,66.8,100,81,53,29.42,29.18,4,1,11,0.01
2014-8-19,91.4,75.1,66.0,72.4,67.8,65.5,100,81,45,29.28,29.15,4,0,11,0.00
2014-8-20,90.7,75.4,65.1,74.0,69.4,64.9,100,83,54,29.39,29.28,2,0,8,0.00
2014-8-21,89.6,75.2,70.5,79.8,73.1,69.2,100,93,72,29.43,29.31,2,0,8,0.00
2014-8-22,98.8,82.7,71.8,81.4,77.1,71.5,100,85,55,29.44,29.35,2,0,7,0.00
2014-8-23,90.0,78.1,72.0,80.0,76.4,71.7,100,95,69,29.49,29.36,1,0,4,0.00
2014-8-24,102.2,80.7,70.2,84.4,76.4,69.9,100,88,54,29.45,29.35,2,0,6,0.00
2014-8-25,98.8,80.0,70.5,80.8,75.8,70.3,100,88,55,29.50,29.39,3,0,18,0.00
2014-8-26,89.6,73.6,65.5,77.4,64.7,60.9,100,76,41,29.69,29.49,2,0,7,0.00
2014-8-27,82.4,70.6,59.9,66.4,62.4,58.8,97,77,55,29.68,29.57,2,0,5,0.00
2014-8-28,77.4,68.8,60.3,69.0,64.9,60.0,100,88,75,29.63,29.43,2,0,7,0.00
2014-8-29,96.8,78.0,68.5,77.5,71.8,66.6,100,83,51,29.44,29.23,2,0,8,0.00
2014-8-30,91.4,74.4,67.8,73.1,70.2,67.6,100,88,52,29.37,29.23,1,0,7,0.00
2014-8-31,95.9,76.5,64.6,75.4,69.9,64.3,100,83,50,29.40,29.22,4,1,13,0.00
2014-9-1,89.1,71.8,64.0,72.2,66.6,63.1,100,86,49,29.33,29.11,3,1,11,0.00
2014-9-2,89.2,71.5,59.7,68.3,62.3,59.3,100,76,39,29.43,29.33,2,0,7,0.00
2014-9-3,94.3,74.2,57.9,72.6,66.5,57.7,100,79,47,29.47,29.27,2,1,9,0.00
2014-9-4,91.2,80.8,73.8,81.2,74.1,68.3,88,80,70,29.33,29.26,2,1,11,0.00
2014-9-5,83.3,69.9,58.3,76.0,62.1,55.7,91,77,56,29.65,29.32,2,1,8,0.00
2014-9-6,88.7,65.4,51.4,58.4,55.7,51.2,100,75,34,29.71,29.62,1,0,7,0.00
2014-9-7,89.1,66.9,53.2,62.1,57.7,53.0,100,76,35,29.70,29.57,2,0,7,0.00
2014-9-8,80.1,65.2,53.4,64.0,58.9,53.2,100,82,55,29.59,29.39,2,0,8,0.01
2014-9-9,80.1,70.6,63.1,70.4,66.9,62.9,100,89,69,29.43,29.20,1,0,7,0.00
2014-9-10,73.8,64.7,51.4,71.5,61.6,45.3,100,90,78,29.48,28.98,3,1,14,0.00
2014-9-11,64.0,53.3,46.2,48.4,44.7,42.3,90,73,55,29.83,29.49,3,0,8,0.00
2014-9-12,54.9,47.6,43.0,47.5,45.0,42.5,100,91,70,29.92,29.81,1,0,5,0.00
2014-9-13,72.7,50.0,37.2,46.1,41.5,36.6,100,77,34,29.88,29.75,2,0,7,0.00
2014-9-14,76.8,56.3,41.4,54.5,48.5,40.9,100,78,44,29.77,29.59,3,0,11,0.07
2014-9-15,73.6,55.5,45.7,55.4,51.5,45.4,100,88,43,29.71,29.60,2,0,7,0.20
2014-9-16,79.9,55.4,43.3,52.1,47.3,43.1,100,79,33,29.73,29.55,2,0,6,0.00
2014-9-17,84.4,58.5,44.4,57.8,51.6,44.2,100,82,39,29.55,29.43,2,0,5,0.00
2014-9-18,84.7,61.5,50.2,61.8,55.5,49.9,99,83,44,29.64,29.51,2,0,5,0.00
2014-9-19,83.1,66.2,53.1,62.8,58.0,52.8,100,77,48,29.59,29.28,3,1,14,0.00
2014-9-20,91.9,71.0,59.5,68.8,64.8,58.5,100,83,41,29.35,29.19,2,1,11,0.57
2014-9-21,64.2,57.3,55.0,58.5,54.6,52.0,100,91,76,29.53,29.32,3,1,10,0.00
2014-9-22,84.7,59.2,46.0,56.0,51.5,45.8,100,80,34,29.80,29.67,2,0,6,0.00
2014-9-23,86.0,61.7,46.0,58.9,52.7,45.8,100,76,33,29.80,29.68,1,0,7,0.00
2014-9-24,70.3,61.9,54.3,61.0,56.3,51.5,100,83,65,29.77,29.69,1,0,5,0.00
2014-9-25,90.3,67.9,58.8,62.5,59.1,51.2,100,77,29,29.75,29.66,2,0,8,0.00
2014-9-26,91.8,67.6,52.9,65.0,59.9,52.6,100,80,39,29.72,29.63,1,0,6,0.00
2014-9-27,94.8,69.9,58.1,67.7,61.7,57.8,100,79,33,29.72,29.59,2,0,6,0.00
2014-9-28,95.0,68.9,54.5,67.5,61.7,54.2,100,82,37,29.66,29.53,1,0,5,0.00
2014-9-29,86.2,66.4,54.7,68.4,60.4,50.3,99,83,46,29.54,29.44,2,0,9,0.00
2014-9-30,65.3,53.9,48.0,52.1,48.3,45.2,92,82,60,29.57,29.44,2,1,8,0.00
2014-10-1,80.4,60.9,48.6,63.2,54.9,45.8,93,82,51,29.46,29.28,2,0,8,0.00
2014-10-2,70.9,64.3,57.4,68.0,63.6,57.1,100,97,88,29.33,29.10,3,0,10,0.38
2014-10-3,57.4,50.1,40.5,57.2,42.5,30.0,100,76,54,29.34,29.15,4,2,17,0.00
2014-10-4,54.7,43.7,36.1,39.2,36.1,30.5,100,76,52,29.28,29.19,3,1,12,0.07
2014-10-5,57.4,45.2,32.7,44.1,36.9,31.9,100,75,42,29.23,29.07,3,0,10,0.00
2014-10-6,69.3,51.7,40.3,45.3,40.9,33.8,100,71,31,29.11,29.05,3,1,12,0.00
2014-10-7,72.0,54.9,46.2,50.5,44.9,40.4,96,71,39,29.37,29.05,3,0,13,0.00
2014-10-8,76.8,54.9,41.4,44.5,40.3,36.1,93,64,24,29.55,29.36,3,1,14,0.00
2014-10-9,72.1,51.0,39.4,42.9,38.7,32.9,95,67,25,29.67,29.55,2,0,6,0.00
2014-10-10,68.2,47.2,33.6,43.6,38.6,33.4,100,76,35,29.74,29.65,2,0,7,0.00
2014-10-11,74.1,47.7,35.6,47.2,38.9,35.4,100,77,28,29.77,29.58,1,0,8,0.00
2014-10-12,59.4,48.3,35.2,52.7,44.1,34.2,100,87,55,29.58,29.32,2,0,5,0.06
2014-10-13,57.0,54.0,52.0,56.8,53.8,51.7,99,99,99,29.33,29.00,2,0,7,1.36
2014-10-14,53.6,51.6,50.7,53.3,51.2,48.4,100,98,88,29.28,28.98,3,1,11,1.04
2014-10-15,69.1,54.5,46.2,51.8,47.2,41.7,100,78,52,29.38,29.27,2,1,8,0.00
2014-10-16,81.1,55.6,42.6,56.1,48.4,42.4,99,80,37,29.36,29.08,2,0,7,0.00
2014-10-17,57.6,52.7,45.1,51.1,48.2,44.9,100,85,73,29.48,29.08,3,1,15,0.01
2014-10-18,67.8,49.0,35.4,47.8,41.6,35.4,100,79,37,29.68,29.48,2,0,8,0.00
2014-10-19,68.0,48.8,32.7,50.6,42.8,32.5,100,82,53,29.66,29.30,4,1,13,0.00
2014-10-20,77.2,56.0,44.1,51.8,46.7,42.7,100,75,36,29.54,29.30,2,0,10,0.00
2014-10-21,63.5,45.9,38.1,48.9,41.4,37.9,100,87,48,29.72,29.54,2,0,6,0.00
2014-10-22,70.2,48.9,34.5,46.6,40.2,34.3,100,76,40,29.82,29.64,2,1,6,0.01
2014-10-23,52.0,50.0,46.8,51.8,47.3,40.6,100,91,70,29.65,29.51,2,0,6,0.20
2014-10-24,69.4,57.2,50.9,60.6,55.6,50.6,100,95,66,29.54,29.36,3,0,9,0.00
2014-10-25,75.6,58.7,43.0,60.2,43.5,27.7,99,66,18,29.52,29.39,4,1,13,0.05
2014-10-26,72.7,51.8,32.4,44.8,36.2,31.6,100,62,24,29.54,29.19,3,1,8,0.00
2014-10-27,72.9,65.9,52.0,61.3,54.6,36.7,91,68,45,29.18,28.96,2,1,10,0.00
2014-10-28,72.9,49.6,39.6,61.3,40.6,28.0,91,71,59,29.48,29.17,7,2,19,0.00
2014-10-29,59.7,44.1,33.6,37.9,34.6,32.3,95,70,43,29.63,29.47,5,1,14,0.00
2014-10-30,51.3,42.2,31.5,42.4,37.8,31.2,100,85,63,29.64,29.55,4,0,17,0.00
2014-10-31,44.8,36.2,32.5,32.6,24.7,20.7,70,63,53,29.90,29.65,5,3,18,0.00
2014-11-11,36.1,31.5,26.4,33.6,27.4,19.1,100,85,70,29.72,29.16,4,2,12,0.04
2014-11-12,33.4,24.2,18.1,20.2,17.3,13.9,86,75,54,29.82,29.72,3,2,10,0.00
2014-11-13,33.4,25.2,21.0,20.9,18.3,15.2,90,76,54,29.85,29.81,4,1,11,0.00
2014-11-14,37.9,20.6,12.2,16.9,12.9,9.8,91,73,38,29.89,29.81,2,1,6,0.00
2014-11-15,25.2,18.5,9.5,21.6,16.1,8.1,100,91,73,29.86,29.65,1,0,3,0.00
2014-11-16,33.4,19.8,9.3,24.7,15.9,5.2,100,86,58,29.67,29.40,2,1,7,0.04
2014-11-17,21.6,12.5,9.7,9.2,6.8,4.5,91,78,54,29.51,29.39,4,2,17,0.00
2014-11-18,20.1,14.1,6.3,12.2,7.4,2.3,84,74,60,29.58,29.39,4,2,13,0.00
2014-11-19,27.1,22.1,10.6,20.8,15.8,1.9,86,76,62,29.50,29.24,5,2,97,0.00
2014-11-20,18.9,14.3,5.2,13.8,10.0,2.7,91,83,65,29.82,29.50,3,1,14,0.00
2014-11-21,38.1,21.0,2.3,25.7,11.2,0.6,94,69,40,29.86,29.53,3,1,11,0.00
2014-11-22,51.3,39.9,32.9,51.0,39.1,25.6,100,97,73,29.54,29.16,3,0,11,0.00
2014-11-23,52.2,48.9,41.2,52.0,48.6,40.9,100,99,97,29.16,28.68,2,0,10,0.28
2014-11-24,41.2,27.6,17.8,40.9,26.0,14.9,100,94,83,29.37,28.67,4,1,14,0.01
2014-11-25,33.1,20.8,12.7,18.8,15.2,12.1,100,80,55,29.62,29.37,3,1,10,0.04
2014-11-26,31.5,22.8,13.6,25.5,20.8,13.0,100,92,77,29.78,29.56,3,0,7,0.00
2014-11-27,27.1,18.0,9.1,22.6,9.1,0.9,93,70,36,29.95,29.78,3,1,11,0.00
2014-11-28,31.6,22.9,13.5,25.7,17.7,6.2,100,80,64,29.83,29.24,3,1,9,0.00
2014-11-29,60.1,37.6,23.5,44.0,33.9,23.3,100,88,54,29.24,28.95,2,0,27,0.01
2014-11-30,33.6,26.0,13.8,31.4,18.8,3.8,100,75,48,29.96,29.06,4,2,12,0.00
2014-12-1,21.4,12.1,8.1,4.1,-0.0,-2.4,72,58,41,30.22,29.96,3,2,11,0.00
2014-12-2,35.2,22.5,11.1,22.0,16.0,3.7,93,77,51,30.02,29.50,4,1,10,0.00
2014-12-3,38.5,24.2,14.9,20.7,15.1,10.8,97,71,39,29.87,29.51,4,1,12,0.00
2014-12-4,36.5,26.8,19.2,24.6,16.2,12.9,78,65,40,29.88,29.67,3,1,8,0.00
2014-12-5,37.4,33.8,31.6,34.5,31.7,24.6,100,92,75,29.82,29.65,2,0,6,0.00
2014-12-6,46.0,32.4,24.4,32.3,26.3,19.9,100,80,49,30.14,29.82,2,1,8,0.00
2014-12-7,37.8,30.7,23.9,32.2,25.5,19.5,100,81,61,30.12,29.65,3,1,9,0.04
2014-12-8,36.0,32.6,29.5,35.7,31.3,25.5,99,95,85,29.71,29.47,5,1,10,0.05
2014-12-9,41.4,31.5,29.1,29.6,26.8,25.4,91,83,61,29.92,29.71,4,1,8,0.00
2014-12-10,32.0,29.7,-16.2,28.5,25.7,-56.2,92,85,10,29.91,29.77,2,0,4,0.00
2014-12-11,33.1,28.1,26.6,27.5,24.9,23.3,100,88,75,29.80,29.73,2,1,8,0.00
2014-12-12,37.6,33.2,27.9,35.6,32.5,27.6,100,97,90,29.80,29.68,1,0,5,0.00
2014-12-13,45.1,38.9,30.0,44.9,38.7,29.8,99,99,99,29.68,29.51,67,0,67,0.00
2014-12-14,94.1,49.0,41.0,93.9,48.7,40.7,99,99,99,29.52,29.39,4,1,17,0.00
2014-12-15,47.8,46.2,43.7,47.6,46.0,43.4,99,99,99,29.39,29.15,2,1,7,0.21
2014-12-16,43.5,31.3,23.2,43.3,28.3,17.8,100,88,79,29.71,29.15,5,2,12,0.07
2014-12-17,31.3,22.1,17.4,18.7,16.8,14.8,91,80,57,29.82,29.71,3,1,7,0.00
2014-12-18,32.0,22.6,14.0,23.0,18.2,13.3,100,84,66,29.81,29.73,2,0,4,0.00
2014-12-19,30.2,27.5,25.3,24.8,22.7,20.6,87,82,77,29.80,29.72,2,0,4,0.00
2014-12-20,32.4,30.3,28.0,31.6,28.7,24.7,100,94,86,29.74,29.64,2,0,4,0.00
2014-12-21,39.9,36.2,31.6,37.4,35.1,31.4,100,96,90,29.64,29.35,3,1,10,0.00
2014-12-22,38.8,36.6,35.2,37.0,35.4,34.0,100,95,88,29.36,29.03,3,2,10,0.11
2014-12-23,38.3,36.1,34.9,37.9,35.9,34.6,99,99,99,29.26,28.97,2,0,4,0.26
2014-12-24,37.2,35.3,33.6,35.6,33.6,-16.1,100,94,10,29.23,29.06,3,1,8,0.02
2014-12-25,51.1,37.6,32.0,34.6,31.7,28.9,91,80,52,29.36,29.16,3,1,10,0.00
2014-12-26,53.8,38.0,28.0,41.1,33.1,27.8,100,84,52,29.49,29.33,1,0,4,0.00
2014-12-27,36.7,30.8,17.4,36.4,28.3,11.4,99,90,73,29.67,29.35,4,1,12,0.08
2014-12-28,40.3,23.9,14.4,22.1,17.0,11.2,92,76,46,29.77,29.64,2,0,5,0.00
2014-12-29,24.3,18.4,6.8,19.6,7.8,-5.3,82,63,47,30.13,29.77,4,2,10,0.00
2014-12-30,19.8,6.6,0.0,-3.7,-7.7,-13.1,68,53,25,30.26,30.12,4,1,10,0.00
2014-12-31,23.0,9.9,-2.2,5.9,-1.7,-8.9,74,60,39,30.15,29.58,6,2,19,0.00
2015-1-1,35.6,23.1,11.3,21.3,13.0,4.3,76,66,46,29.62,29.41,4,1,13,0.00
2015-1-2,33.6,24.4,14.9,22.3,16.7,13.0,94,74,49,29.78,29.57,2,0,4,0.00